sat.trackr.live / text

‹ back to catalog

STARLINK-33601

NORAD 62768 · 2025-015L

PAYLOAD ACTIVE UNKNOWN

§ Identity

Operator
Country
US
Launch date
2025-01-21
Launch site
AFWTR
Launch vehicle
Mass (kg)
RCS (m²)

Purposes: comms

External: N2YO · Heavens-Above · Gunter

§ Orbital elements

Epoch: 2026-05-24T22:45:06.456096Z

Period
93.85 min
Inclination
53.1593°
Eccentricity
0.0000703
Mean motion
15.34405995 rev/d
Perigee alt
462.2 km
Apogee alt
463.2 km
Semi-major
6,840.8 km
B*
4.4125e-4
RAAN
327.7474°
Arg perigee
95.0811°
Mean anomaly
265.0271°
Rev number
7,616

§ Raw data

STARLINK-336011 62768U 25015L   26144.94799139  .00014564  00000+0  44125-3 0  99982 62768  53.1593 327.7474 0000703  95.0811 265.0271 15.34405995 76163

JSON: /api/v1/satellites/62768 · /tle

For live sub-satellite position, see the globe view (requires WebGL).

§ Visibility from observer

Set your observer location to see the next 7 days of passes ≥ 10°. The values pass through the URL so the page stays shareable.

No JS? Fill the form by hand. The geolocation button needs JavaScript.